Regional Weather Roundup
Issued by NWS

Home | Current Version | Previous Version | Text Only | Print | Product List | Glossary On
Versions: 1 2 3 4 5 6 7 8 9 10 11 12 13 14 15 16 17 18 19 20 21 22 23 24 25 26 27 28 29 30 31 32 33 34 35 36 37 38 39 40 41 42 43 44 45 46 47 48 49 50
000
ASMX46 KSGX 251011
RWRMX

MEXICAN WEATHER ROUNDUP
NATIONAL WEATHER SERVICE SAN DIEGO CA
300 AM PDT WED MAY 25 2016

BAJA CALIFORNIA

CITY           SKY/WX    TMP DP  RH WIND       PRES   REMARKS
ENSENADA NW      N/A     57  32  38 CALM      30.02F
S.J. DEL CABO    N/A    N/A N/A N/A MISG        N/A
TIJUANA        MOCLDY    57  50  77 CALM      30.06F

NORTHWESTERN MEXICO

CITY           SKY/WX    TMP DP  RH WIND       PRES   REMARKS
HERMOSILLO     CLEAR     68  39  34 CALM      29.95

NORTHEASTERN MEXICO

CITY           SKY/WX    TMP DP  RH WIND       PRES   REMARKS
MONCLOVA         N/A    N/A N/A N/A MISG        N/A
MONTERREY      CLOUDY    79  73  83 E5        29.90S
NUEVO LAREDO   CLOUDY    81  75  83 SE8       29.90
REYNOSA          N/A    N/A N/A N/A MISG        N/A
VICTORIA         N/A    N/A N/A N/A MISG        N/A

WESTERN MEXICO

CITY           SKY/WX    TMP DP  RH WIND       PRES   REMARKS
AGUASCALIENTES CLEAR     63  32  31 S9        30.30
COLIMA           N/A    N/A N/A N/A MISG        N/A
GUADALAJARA    CLEAR     66  46  48 CALM      30.20
MAZATLAN       MOCLDY    72  70  94 CALM      29.90F
PTO. VALLARTA  MOCLDY    73  72  94 NE2       29.92S
TEPIC            N/A    N/A N/A N/A MISG        N/A
URUAPAN          N/A    N/A N/A N/A MISG        N/A
ZACATECAS      CLEAR     55  32  41 W8        30.34

CENTRAL MEXICO

CITY           SKY/WX    TMP DP  RH WIND       PRES   REMARKS
CUERNAVACA       N/A    N/A N/A N/A MISG        N/A
LEON           PTCLDY    64  48  55 CALM      30.32
MEXICO CITY    PTCLDY    61  54  77 SW3       30.41S
MORELIA        PTCLDY    61  54  77 CALM      30.28
POZA RICA        N/A    N/A N/A N/A MISG        N/A
PUEBLA         PTCLDY    54  50  87 W5        30.40
S. LUIS POTOSI PTCLDY    64  57  77 CALM      30.27S
TOLUCA         PTCLDY    54  48  82 NE5       30.50R
VERACRUZ         N/A    N/A N/A N/A MISG        N/A

SOUTHERN MEXICO

CITY           SKY/WX    TMP DP  RH WIND       PRES   REMARKS
ACAPULCO       PTCLDY    82  79  89 NW7       29.91S
B. DE HUATULCO   N/A    N/A N/A N/A MISG        N/A
MINATITLAN     MOCLDY    82  75  78 CALM      29.87
PTO. ESCONDIDO   N/A    N/A N/A N/A MISG        N/A
TAPACHULA      MOCLDY    79  77  94 NE7       29.87R
VILLAHERMOSA   PTCLDY    81  77  89 E8        29.89

YUCATAN PENINSULA

CITY           SKY/WX    TMP DP  RH WIND       PRES   REMARKS
CAMPECHE         N/A    N/A N/A N/A MISG        N/A
CANCUN         CLEAR     79  77  94 NE3       30.00F
CHETUMAL         N/A    N/A N/A N/A MISG        N/A
C. DEL CARMEN    N/A    N/A N/A N/A MISG        N/A
COZUMEL        PTCLDY    73  73 100 CALM      29.99F
MERIDA         CLEAR     79  75  89 E7        29.98F

$$





USA.gov is the U.S. government's official web portal to all federal, state and local government web resources and services.